This demonstration page uses our WeatherBlox Daily Observations layout. Learn more.

Left ArrowRight Arrow

Hourly Observations for July 10, 2022

Temp ( °F °C ) Dew Point ( °F °C ) Humidity (%) Winds ( mph kmh ) Pressure ( in mb ) Visibility ( mi km ) Precip ( " mm )
12:52 am 00:52 Clear 74 23.3 69 20.6 85 85 SSE 9 15 30.08 1019 10 16 0.00 0.00
1:52 am 01:52 Clear 73 22.8 68 20 84 84 SSE 8 13 30.06 1018 10 16 0.00 0.00
2:52 am 02:52 Clear 74 23.3 68 20 82 82 S 12 19 30.06 1018 10 16 0.00 0.00
3:52 am 03:52 Partly Cloudy 73 22.8 67 19.4 81 81 S 10 17 30.05 1018 10 16 0.00 0.00
4:52 am 04:52 Partly Cloudy 72 22.2 67 19.4 84 84 SSE 13 20 30.04 1017 10 16 0.00 0.00
5:52 am 05:52 Partly Cloudy 72 22.2 68 20 87 87 S 9 15 30.05 1018 10 16 0.00 0.00
6:52 am 06:52 Partly Cloudy 73 22.8 68 20 84 84 S 10 17 30.06 1018 10 16 0.00 0.00
7:52 am 07:52 Partly Cloudy 74 23.3 68 20 82 82 S 14 22 30.06 1018 10 16 0.00 0.00
8:52 am 08:52 Mostly Sunny 77 25 68 20 74 74 S 18 30 30.02 1017 10 16 0.00 0.00
9:52 am 09:52 Mostly Sunny 80 26.7 69 20.6 69 69 S 21 33 30.00 1016 10 16 0.00 0.00
10:52 am 10:52 Mostly Sunny 82 27.8 68 20 63 63 SSW 20 31 29.99 1016 10 16 0.00 0.00
11:52 am 11:52 Mostly Sunny 84 28.9 68 20 59 59 S 22 35 29.96 1014 10 16 0.00 0.00
12:52 pm 12:52 Mostly Sunny 87 30.6 70 21.1 57 57 S 20 31 29.92 1013 10 16 0.00 0.00
1:52 pm 13:52 Mostly Sunny 88 31.1 70 21.1 55 55 S 18 30 29.90 1013 10 16 0.00 0.00
2:52 pm 14:52 Partly Cloudy 89 31.7 70 21.1 53 53 S 26 43 29.85 1011 10 16 0.00 0.00
3:52 pm 15:52 Partly Cloudy 91 32.8 71 21.7 52 52 S 21 33 29.86 1011 10 16 0.00 0.00
4:52 pm 16:52 Partly Cloudy 91 32.8 72 22.2 54 54 S 17 28 29.84 1011 10 16 0.00 0.00
5:52 pm 17:52 Partly Cloudy 92 33.3 72 22.2 52 52 S 22 35 29.82 1010 10 16 0.00 0.00
6:52 pm 18:52 Mostly Sunny 91 32.8 72 22.2 54 54 S 23 37 29.79 1009 10 16 0.00 0.00
7:52 pm 19:52 Partly Cloudy 89 31.7 72 22.2 57 57 SSW 15 24 29.80 1009 10 16 0.00 0.00
8:52 pm 20:52 Partly Cloudy 88 31.1 73 22.8 61 61 S 10 17 29.80 1009 10 16 0.00 0.00
9:52 pm 21:52 Mostly Cloudy 86 30 73 22.8 65 65 S 8 13 29.81 1010 10 16 0.00 0.00
10:52 pm 22:52 Mostly Cloudy 82 27.8 75 23.9 79 79 SSE 7 11 29.82 1010 10 16 0.00 0.00
11:52 pm 23:52 Mostly Cloudy 82 27.8 73 22.8 74 74 VRB 3 6 29.82 1010 10 16 0.00 0.00

Powered by AerisWeather